Regional Weather Roundup
Issued by NWS

Home | Current Version | Previous Version | Graphics & Text | Print | Product List | Glossary On
Versions: 1 2 3 4 5 6 7 8 9 10 11 12 13 14 15 16 17 18 19 20 21 22 23 24 25 26 27 28 29 30 31 32 33 34 35 36 37 38 39 40 41 42 43 44 45 46 47 48 49 50
000
ASUS43 KMPX 160010
RWRMN
WEATHER ROUNDUP FOR MINNESOTA
NATIONAL WEATHER SERVICE TWIN CITIES/CHANHASSEN MN
700 PM CDT MON SEP 15 2014


NOTE: "FAIR" INDICATES FEW OR NO CLOUDS BELOW 12,000 FEET WITH NO
SIGNIFICANT WEATHER AND/OR OBSTRUCTIONS TO VISIBILITY. N/A MEANS
CURRENT SKY AND/OR WEATHER CONDITIONS ARE NOT AVAILABLE.

MNZ060>063-068>070-160100-
   Twin Cities Metro

CITY           SKY/WX    TMP DP  RH WIND       PRES   REMARKS
TWIN CITIES    PTCLDY    57  37  47 NW7       30.20R
6HR MIN TEMP:  57; 6HR MAX TEMP:  62;

ST PAUL        CLEAR     57  37  47 NW8       30.20S
CRYSTAL        PTCLDY    59  37  44 NW5       30.18F
BLAINE         PTCLDY    57  39  51 NW8       30.19S
LAKEVILLE      CLEAR     54  41  62 NW5       30.20S
EDEN PRAIRIE   CLEAR     58  39  49 NW5       30.19S
6HR MIN TEMP:  57; 6HR MAX TEMP:  63;

SOUTH ST PAUL  CLEAR     58  36  43 NW7       30.19S
LAKE ELMO      FAIR      55  39  54 NW3       30.20S
$$
MNZ001>005-007-008-013>017-022>024-027-028-160100-
   Northwest Minnesota

CITY           SKY/WX    TMP DP  RH WIND       PRES   REMARKS
BEMIDJI        PTCLDY    55  39  53 SW3       30.14S
HALLOCK        CLEAR     64  36  34 W9        30.05S
ROSEAU         PTCLDY    57  41  54 SW5       30.07F
WARROAD        CLEAR     59  39  47 SW3       30.08F
THIEF RVR FALL PTCLDY    61  39  44 SW7       30.10S
CROOKSTON      CLEAR     63  39  42 SW7       30.11S
FOSSTON        MOCLDY    59  43  55 CALM      30.13F
DETROIT LAKES  CLEAR     59  37  44 W3        30.17F
MOORHEAD       CLEAR     63  36  36 SW5       30.16F
PARK RAPIDS    CLEAR     56  35  45 W7        30.16F
MAHNOMEN       MOCLDY    59  37  43 SW7       30.14F
$$
MNZ006-009>011-018-025>026-160100-
   North Central Minnesota

CITY           SKY/WX    TMP DP  RH WIND       PRES   REMARKS
BAUDETTE       CLEAR     56  37  49 CALM      30.09F
FLAG ISLAND    CLEAR     59  37  44 SW9       30.05F
INTL FALLS     CLEAR     53  37  54 W5        30.09F
6HR MIN TEMP:  53; 6HR MAX TEMP:  61;

WASKISH        MOCLDY    55  45  67 CALM      30.11F
BIG FORK       MOCLDY    55  39  54 SW3       30.14F
LONGVILLE      CLEAR     52  45  76 CALM      30.16S
GRAND RAPIDS   CLEAR     55  34  44 W5        30.15F
CRANE LAKE     CLEAR     52  36  54 CALM      30.12F
ORR            PTCLDY    54  36  50 CALM      30.10S
COOK           CLOUDY    54  39  58 W5        30.13F
WALKER         FAIR      55  37  51 CALM      30.15F
$$
MNZ012-019>021-037-160100-
   Northeast Minnesota

CITY           SKY/WX    TMP DP  RH WIND       PRES   REMARKS
DULUTH         PTCLDY    53  36  52 W6        30.15S
6HR MIN TEMP:  53; 6HR MAX TEMP:  59;

ELY            CLEAR     52  37  58 W3        30.12S
HIBBING        PTCLDY    54  36  50 W3        30.14F
EVELETH        PTCLDY    52  36  54 W5        30.15S
DULUTH HARBOR  PTCLDY    57  39  51 W8        30.16S
TWO HARBORS    CLEAR     52  39  62 W3        30.12S
SILVER BAY     CLEAR     48  43  81 CALM      30.11S
GRAND MARAIS     N/A     52  43  71 NW3       30.09S
G MARAIS ARPRT CLEAR     46  36  66 W3        30.11S
$$
MNZ029>031-032-039>041-046>048-054>057-064-160100-
   West Central Minnesota

CITY           SKY/WX    TMP DP  RH WIND       PRES   REMARKS
FERGUS FALLS   CLEAR     59  36  41 W3        30.18F
WHEATON        CLEAR     59  37  44 CALM      30.21F
MORRIS         CLEAR     61  36  39 CALM      30.20S
ALEXANDRIA     CLEAR     56  37  49 NW5       30.21S
ELBOW LAKE     FAIR      57  38  48 W3        30.19F
WADENA         CLEAR     55  36  47 CALM      30.18F
GLENWOOD       CLEAR     55  37  50 NW3       30.21F
APPLETON       CLEAR     61  37  41 CALM      30.21S
BENSON         CLEAR     57  37  47 CALM      30.21S
ORTONVILLE     CLEAR     61  30  31 CALM      30.21S
MADISON        CLEAR     61  41  48 CALM      30.21F
WILLMAR        FAIR      57  37  47 NW6       30.22S
$$
MNZ033>034-036-042>043-049>051-058-059-160100-
   Central Minnesota

CITY           SKY/WX    TMP DP  RH WIND       PRES   REMARKS
ST CLOUD       PTCLDY    59  38  45 NW5       30.19S
6HR MIN TEMP:  59; 6HR MAX TEMP:  64;

SAUK CENTRE    FAIR      56  35  46 W6        30.21S
PAYNESVILLE    CLEAR     55  37  50 W3        30.21S
AITKIN         CLEAR     55  41  58 CALM      30.16F
PINE RIVER     CLEAR     55  39  54 CALM      30.20S
BRAINERD       CLEAR     55  35  47 CALM      30.18S
STAPLES        CLEAR     55  34  44 W3        30.18F
LONG PRAIRIE   FAIR      55  36  47 W5        30.20S
LITTLE FALLS   CLEAR     55  34  44 CALM      30.19S
LITCHFIELD     CLOUDY    59  39  47 NW3       30.21S
BUFFALO        CLEAR     57  37  46 W5        30.21S
MAPLE LAKE     CLEAR     56  43  60 CALM      30.21S
$$
MNZ037-044-045-052-053-160100-
   East Central Minnesota

CITY           SKY/WX    TMP DP  RH WIND       PRES   REMARKS
PRINCETON      CLEAR     57  39  51 W5        30.20R
MORA           CLEAR     52  37  58 CALM      30.20F
CAMBRIDGE      CLEAR     57  43  58 CALM      30.18S
RUSH CITY      PTCLDY    53  37  55 CALM      30.19S
MOOSE LAKE     CLEAR     54  39  58 CALM      30.16S
HINCKLEY       FAIR      55  36  47 NW3       30.18S
CLOQUET        CLEAR     54  36  50 CALM      30.16S
MCGREGOR       CLEAR     55  36  47 CALM      30.17F
$$
MNZ071>073-080-081-089-090-097-098-160100-
   Southwest Minnesota

CITY           SKY/WX    TMP DP  RH WIND       PRES   REMARKS
MONTEVIDEO     CLEAR     59  37  44 NW5       30.22F
GRANITE FALLS  CLEAR     56  40  55 W3        30.23S
CANBY          CLEAR     59  39  48 CALM      30.22F
MARSHALL       CLEAR     57  37  47 N5        30.21S
REDWOOD FALLS  CLEAR     59  38  45 NW7       30.21S
OLIVIA         CLEAR     59  37  44 NW5       30.21S
PIPESTONE      CLEAR     59  37  44 NW3       30.22S
WINDOM         CLEAR     55  43  62 NW3       30.23S
WORTHINGTON    CLEAR     57  39  51 NW5       30.23S
JACKSON        CLEAR     55  41  58 CALM      30.23S
TRACY          CLEAR     57  44  61 CALM      30.22F
SLAYTON        CLEAR     56  39  52 CALM      30.23S
$$
MNZ065>067-074>077-082>085-091>093-160100-
   South Central Minnesota

CITY           SKY/WX    TMP DP  RH WIND       PRES   REMARKS
MANKATO        CLEAR     57  37  47 N3        30.21S
NEW ULM        CLEAR     57  43  58 W5        30.21S
ST JAMES       PTCLDY    59  39  47 W3        30.23S
FAIRMONT       CLEAR     57  39  51 CALM      30.22S
GLENCOE        CLEAR     58  39  50 NW3       30.20S
FARIBAULT      CLEAR     57  37  47 CALM      30.21S
OWATONNA       CLEAR     55  41  58 CALM      30.21R
WASECA         CLEAR     55  37  50 CALM      30.23R
ALBERT LEA     CLEAR     55  41  58 CALM      30.21S
$$
MNZ078>079-086>088-094>096-160100-
   Southeast Minnesota

CITY           SKY/WX    TMP DP  RH WIND       PRES   REMARKS
ROCHESTER      CLEAR     52  42  69 NW6       30.21R
6HR MIN TEMP:  51; 6HR MAX TEMP:  61;

RED WING       CLEAR     57  39  51 CALM      30.18S
STANTON        CLEAR     57  42  57 W3        30.18S
DODGE CENTER   CLEAR     54  43  66 NW7       30.21R
WINONA         MOCLDY    55  43  62 N5        30.18S
AUSTIN         MOCLDY    54  43  66 NW5       30.20S
PRESTON        CLOUDY    54  47  76 NW5       30.20R
$$
ABBREVIATIONS USED IN REMARKS
   TC - TEMPERATURES IN CELSIUS
  WCI - WIND CHILL INDEX
   HX - HEAT INDEX
  VSB - VISIBILITY
$$



USA.gov is the U.S. government's official web portal to all federal, state and local government web resources and services.